{"data":{"norad_id":63878,"intl_designator":"2025-094Q","name":"STARLINK-33901","alt_names":[],"object_type":"PAYLOAD","status":"ACTIVE","operator":null,"country":"US","launch_date":"2025-05-10","launch_site_code":"AFWTR","launch_vehicle":null,"mission":null,"orbit_class":"UNKNOWN","rcs_meters":null,"size_class":null,"mass_kg":null,"dimensions":null,"purposes":["comms"],"wikipedia_slug":null,"has_3d_model":false,"image_url":null,"decayed_at":null,"tle_current":{"epoch":"2026-05-25T02:11:03.768576Z","epoch_age_seconds":64271,"freshness":"FRESH","line1":"1 63878U 25094Q   26145.09101584  .00002214  00000+0  19326-3 0  9990","line2":"2 63878  70.0022  41.9665 0002753 269.5934  90.4910 14.98336324 58640","mean_motion":14.98336324,"eccentricity":0.0002753,"inclination_deg":70.0022,"raan_deg":41.9665,"arg_perigee_deg":269.5934,"mean_anomaly_deg":90.491,"bstar":0.00019326,"rev_number":5864,"period_min":96.106593488686,"perigee_km":570.12295184586,"apogee_km":573.94971728388,"semimajor_km":6950.1733345649,"source":"CELESTRAK","updated_at":"2026-05-25T13:38:20.171900Z"}}}